Location: Boiro
(42.6475°N, 8.8834°W)
Time: 08:34:37
(UTC+01:00)

SR - Pass Details

Date: 02 December 2021
Orbit: 583 x 872 km, 66.7° (Epoch: 16 January)

Event Time Altitude Azimuth Distance (km) Brightness Sun altitude
Rises 09:10:37 0° 339° (NNW) 2,818 ? 2.8°
Reaches altitude 10° 09:13:11 10° 354° (N) 1,927 ? 3.2°
Maximum altitude 09:16:43 24° 49° (NE) 1,265 ? 3.8°
Drops below altitude 10° 09:20:21 10° 104° (ESE) 1,998 ? 4.3°
Sets 09:23:03 0° 118° (ESE) 2,947 ? 4.7°
